NOAA 16 DEB, 41413

Orbit data source: Space-Track

NOAA 16 DEB, 41413 is space debris in SSO originally from a launch on Thu, 21 Sep 2000 UTC launched from the Air Force Western Test Range (AFWTR). Debris objects in space refer to the collection of defunct objects orbiting the Earth. Examples of debris include non-operational satellites, rocket bodies, and fragments generated from explosions, collisions, or faulty payload assembly.

Loading next visibility...
Identifier
41413, 2000-055KS
Orbit
SSO
Country
Flag of USUS
Related business
Manufacturer
Unknown
Mission
Spacecraft
Bus & Motor
Unknown
Mass
Unknown
Launch date (UTC)
2000-09-21 (26 years ago)
Launch vehicle
Unknown
Launch site
Air Force Western Test Range (AFWTR)
Object type
Payload
Rocket body
Debris
Shape & HBR
Unknown shape, 0.1 m
Radar Cross Section
Medium (>0.1 m² and <1 m²)

Expand to show TLE details & history
Last TLE update: 1 week ago

TLE from 1 week ago
0 NOAA 16 DEB
1 41413U 00055KS  26153.43475588  .00004650  00000-0  17623-2 0  9990
2 41413  98.6747 218.9667 0020232 182.3168 177.7924 14.31488131532127
Epoch: 2026-06-02T10:26Z
TLE epoch observation values (Epoch: 2026-06-02T10:26:02.908Z)
Latitude
-0.00004°
Longitude
171.54681°
Altitude
804.18 km
Speed
7.444 km/s
True Right ascension
14h 35m 52s
True Declination
0° 00' 00"
Sunlit
Object was in full shadow at epoch
Visualization orbit readout
Latitude
Unknown
Longitude
Unknown
Altitude
Unknown
Speed
Unknown
Apparent Right ascension
Unknown
Apparent Declination
Unknown
Sunlit
N/A
Visualization observer readout
Local Sidereal Time
18:46:15
Azimuth
Unknown
Elevation
Unknown
Doppler factor
Unknown
Orbital elements
Apogee altitude
798.393 km
Perigee altitude
769.412 km
Semi-major axis
7,162.039 km
Eccentricity
0.00202
Inclination
98.6747°
RAAN
218.9667°
Arg. of periapsis
182.3168°
True anomaly
177.80131°
Mean anomaly
177.7924°
Eccentric anomaly
177.79686°
Mean motion
3.58087 °/min
Orbital period
100.53 mins
BSTAR
0.0017623
Loading maneuver chart data...
Computing Atmospheric mass density...
Loading historical data...
Loading historical data...
Loading historical data...
Loading historical data...
Loading historical data...
Loading historical data...
Loading historical data...

Documentation

Showing up to 5 results
|